Altus, OK

8:18 PM CST on January 16, 2018 (GMT -0600)
Altus Municipal

Weather History for KAXS - December, 2012

Change the Weather History Date:

Tuesday, December 4, 2012

  Actual Average (KLTS) Record (KLTS)
Temperature  
Mean Temperature 50 °F -  
Max Temperature 64 °F 54 °F 78 °F (2017)
Min Temperature 35 °F 32 °F 19 °F (2006)
Degree Days  
Heating Degree Days 14    
Moisture  
Dew Point 26 °F    
Average Humidity 37    
Maximum Humidity 58    
Minimum Humidity 15    
Precipitation  
Precipitation 0.00 in - - ()
Sea Level Pressure  
Sea Level Pressure 30.27 in    
Wind  
Wind Speed 11 mph (North)    
Max Wind Speed 21 mph    
Max Gust Speed 24 mph    
Visibility 10 miles    
Events      
Averages and records for this station are not official NWS values.
T = Trace of Precipitation, MM = Missing Value Source: NWS Daily Summary

Daily Weather History Graph

Daily Weather History Graph

Search for Another Location

Airport or City:

Trip Planner

Search our weather history database for the weather conditions in past years. The results will help you decide how hot, cold, wet, or windy it might be!

Date:

Astronomy

Dec. 04, 2012 Rise Set
Actual Time 7:29 AM CST 5:26 PM CST
Civil Twilight 7:01 AM CST 5:53 PM CST
Nautical Twilight 6:30 AM CST 6:25 PM CST
Astronomical Twilight 5:59 AM CST 6:55 PM CST
Moon 11:05 PM CST (12/4) 11:32 AM CST (12/4)
Length of Visible Light 10h 52m
Length of Day
9h 56m
Waning Gibbous, 69% of the Moon is Illuminated
Dec 4
Waning Gibbous
Dec 6
Last Quarter
Dec 13
New
Dec 19
First Quarter
Dec 28
Full

Hourly Weather History & Observations

Time (CST) Temp. Windchill Dew Point Humidity Pressure Visibility Wind Dir Wind Speed Gust Speed Precip Events Conditions
12:15 AM 53.6 °F - 37.4 °F 54% 30.09 in 10.0 mi North 11.5 mph - N/A   Clear
12:35 AM 51.8 °F - 37.4 °F 58% 30.09 in 10.0 mi North 10.4 mph - N/A   Clear
12:55 AM 51.8 °F - 37.4 °F 58% 30.09 in 10.0 mi North 9.2 mph - N/A   Clear
1:15 AM 51.8 °F - 37.4 °F 58% 30.11 in 10.0 mi NNW 11.5 mph - N/A   Clear
1:35 AM 51.8 °F - 37.4 °F 58% 30.10 in 10.0 mi North 11.5 mph - N/A   Clear
1:55 AM 51.8 °F - 37.4 °F 58% 30.10 in 10.0 mi North 11.5 mph - N/A   Clear
2:15 AM 51.8 °F - 37.4 °F 58% 30.11 in 10.0 mi North 11.5 mph - N/A   Clear
2:55 AM 55.4 °F - 35.6 °F 47% 30.12 in 10.0 mi North 20.7 mph 24.2 mph N/A   Clear
3:15 AM 55.4 °F - 35.6 °F 47% 30.13 in 10.0 mi NNE 16.1 mph - N/A   Clear
3:35 AM 53.6 °F - 35.6 °F 51% 30.14 in 10.0 mi NNE 17.3 mph 24.2 mph N/A   Clear
3:55 AM 53.6 °F - 35.6 °F 51% 30.15 in 10.0 mi NNE 16.1 mph - N/A   Clear
4:15 AM 53.6 °F - 33.8 °F 47% 30.15 in 10.0 mi North 15.0 mph - N/A   Clear
4:35 AM 53.6 °F - 33.8 °F 47% 30.16 in 10.0 mi NNE 16.1 mph - N/A   Clear
4:55 AM 53.6 °F - 33.8 °F 47% 30.16 in 10.0 mi NNE 16.1 mph 20.7 mph N/A   Clear
5:15 AM 51.8 °F - 33.8 °F 50% 30.17 in 10.0 mi North 13.8 mph - N/A   Clear
5:35 AM 51.8 °F - 33.8 °F 50% 30.18 in 10.0 mi NNE 12.7 mph - N/A   Clear
5:55 AM 53.6 °F - 32.0 °F 44% 30.18 in 10.0 mi NNE 15.0 mph - N/A   Clear
6:15 AM 51.8 °F - 32.0 °F 47% 30.19 in 10.0 mi NNE 17.3 mph 21.9 mph N/A   Clear
6:35 AM 51.8 °F - 32.0 °F 47% 30.21 in 10.0 mi NNE 16.1 mph - N/A   Clear
6:55 AM 50.0 °F - 32.0 °F 50% 30.24 in 10.0 mi North 16.1 mph - N/A   Clear
7:15 AM 50.0 °F - 32.0 °F 50% 30.25 in 10.0 mi North 11.5 mph - N/A   Clear
7:35 AM 50.0 °F - 32.0 °F 50% 30.26 in 10.0 mi North 8.1 mph - N/A   Clear
7:55 AM 46.4 °F 42.4 °F 32.0 °F 57% 30.28 in 10.0 mi NW 8.1 mph - N/A   Clear
8:15 AM 48.2 °F - 32.0 °F 54% 30.29 in 10.0 mi North 10.4 mph - N/A   Clear
8:35 AM 50.0 °F - 32.0 °F 50% 30.31 in 10.0 mi North 12.7 mph - N/A   Clear
8:55 AM 51.8 °F - 32.0 °F 47% 30.32 in 10.0 mi North 12.7 mph - N/A   Clear
9:15 AM 53.6 °F - 32.0 °F 44% 30.33 in 10.0 mi North 13.8 mph - N/A   Clear
9:35 AM 55.4 °F - 30.2 °F 38% 30.33 in 10.0 mi NNE 13.8 mph - N/A   Clear
9:55 AM 57.2 °F - 28.4 °F 33% 30.34 in 10.0 mi NE 15.0 mph 23.0 mph N/A   Clear
10:15 AM 59.0 °F - 28.4 °F 31% 30.35 in 10.0 mi NNE 16.1 mph - N/A   Clear
10:35 AM 59.0 °F - 28.4 °F 31% 30.36 in 10.0 mi NNE 13.8 mph - N/A   Clear
10:55 AM 60.8 °F - 26.6 °F 27% 30.36 in 10.0 mi NNE 16.1 mph 19.6 mph N/A   Clear
11:15 AM 60.8 °F - 24.8 °F 25% 30.35 in 10.0 mi NNE 16.1 mph 20.7 mph N/A   Clear
11:35 AM 60.8 °F - 23.0 °F 23% 30.35 in 10.0 mi NNE 12.7 mph 16.1 mph N/A   Clear
11:55 AM 62.6 °F - 23.0 °F 22% 30.35 in 10.0 mi NNE 10.4 mph - N/A   Clear
12:15 PM 62.6 °F - 23.0 °F 22% 30.35 in 10.0 mi NNE 12.7 mph - N/A   Clear
12:35 PM 62.6 °F - 21.2 °F 20% 30.34 in 10.0 mi NNE 9.2 mph - N/A   Clear
12:55 PM 62.6 °F - 23.0 °F 22% 30.34 in 10.0 mi NNE 11.5 mph 16.1 mph N/A   Clear
1:15 PM 62.6 °F - 21.2 °F 20% 30.33 in 10.0 mi North 12.7 mph - N/A   Clear
1:35 PM 64.4 °F - 19.4 °F 18% 30.32 in 10.0 mi North 13.8 mph - N/A   Clear
1:55 PM 64.4 °F - 19.4 °F 18% 30.30 in 10.0 mi NNE 12.7 mph 16.1 mph N/A   Clear
2:15 PM 64.4 °F - 17.6 °F 16% 30.30 in 10.0 mi North 12.7 mph 17.3 mph N/A   Clear
2:35 PM 64.4 °F - 19.4 °F 18% 30.30 in 10.0 mi NNE 10.4 mph - N/A   Clear
2:55 PM 64.4 °F - 17.6 °F 16% 30.30 in 10.0 mi North 10.4 mph - N/A   Clear
3:15 PM 64.4 °F - 17.6 °F 16% 30.30 in 10.0 mi North 11.5 mph - N/A   Clear
3:35 PM 64.4 °F - 15.8 °F 15% 30.31 in 10.0 mi NNE 11.5 mph - N/A   Clear
3:55 PM 64.4 °F - 15.8 °F 15% 30.31 in 10.0 mi North 6.9 mph - N/A   Clear
4:15 PM 64.4 °F - 15.8 °F 15% 30.31 in 10.0 mi NNE 11.5 mph - N/A   Clear
4:55 PM 60.8 °F - 17.6 °F 19% 30.31 in 10.0 mi North 8.1 mph - N/A   Clear
5:15 PM 59.0 °F - 19.4 °F 22% 30.31 in 10.0 mi North 5.8 mph - N/A   Clear
5:35 PM 57.2 °F - 19.4 °F 23% 30.31 in 10.0 mi NNE 5.8 mph - N/A   Clear
5:55 PM 55.4 °F - 17.6 °F 23% 30.31 in 10.0 mi NNE 4.6 mph - N/A   Clear
6:15 PM 55.4 °F - 17.6 °F 23% 30.31 in 10.0 mi North 4.6 mph - N/A   Clear
6:35 PM 53.6 °F - 19.4 °F 26% 30.31 in 10.0 mi NNE 3.5 mph - N/A   Clear
6:55 PM 53.6 °F - 17.6 °F 24% 30.31 in 10.0 mi NE 4.6 mph - N/A   Clear
7:15 PM 50.0 °F - 17.6 °F 28% 30.32 in 10.0 mi Calm Calm - N/A   Clear
7:35 PM 50.0 °F - 17.6 °F 28% 30.33 in 10.0 mi North 4.6 mph - N/A   Clear
7:55 PM 46.4 °F 43.5 °F 17.6 °F 32% 30.33 in 10.0 mi North 5.8 mph - N/A   Clear
8:15 PM 46.4 °F 43.5 °F 19.4 °F 34% 30.33 in 10.0 mi North 5.8 mph - N/A   Clear
8:35 PM 46.4 °F 43.5 °F 19.4 °F 34% 30.33 in 10.0 mi North 5.8 mph - N/A   Clear
8:55 PM 44.6 °F 42.2 °F 19.4 °F 37% 30.33 in 10.0 mi North 4.6 mph - N/A   Clear
9:15 PM 42.8 °F 38.6 °F 19.4 °F 39% 30.33 in 10.0 mi North 6.9 mph - N/A   Clear
9:35 PM 41.0 °F 36.4 °F 19.4 °F 42% 30.33 in 10.0 mi North 6.9 mph - N/A   Clear
9:55 PM 39.2 °F 34.2 °F 21.2 °F 49% 30.33 in 10.0 mi North 6.9 mph - N/A   Clear
10:15 PM 41.0 °F 35.8 °F 21.2 °F 45% 30.33 in 10.0 mi NNE 8.1 mph - N/A   Clear
10:35 PM 42.8 °F 41.1 °F 21.2 °F 42% 30.32 in 10.0 mi NE 3.5 mph - N/A   Clear
10:55 PM 41.0 °F - 21.2 °F 45% 30.33 in 10.0 mi Calm Calm - N/A   Clear
11:15 PM 41.0 °F - 19.4 °F 42% 30.33 in 10.0 mi Calm Calm - N/A   Clear
11:35 PM 37.4 °F 32.8 °F 19.4 °F 48% 30.33 in 10.0 mi North 5.8 mph - N/A   Clear
11:55 PM 35.6 °F 29.9 °F 21.2 °F 56% 30.34 in 10.0 mi North 6.9 mph - N/A   Clear